Time,TemperatureF,DewpointF,PressureIn,WindDirection,WindDirectionDegrees,WindSpeedMPH,WindSpeedGustMPH,Humidity,HourlyPrecipIn,Conditions,Clouds,dailyrainin,SoftwareType,DateUTC
2013-10-24 00:21:00,62.0,55.0,29.96,West,263,1.0,3.0,78,0.00,,,0.00,,2013-10-24 07:21:00,
2013-10-24 00:42:00,62.0,55.0,29.96,West,263,0.0,3.0,78,0.00,,,0.00,,2013-10-24 07:42:00,
2013-10-24 00:52:00,62.0,55.0,29.96,West,263,0.0,2.0,78,0.00,,,0.00,,2013-10-24 07:52:00,
2013-10-24 01:11:00,62.0,55.0,29.96,West,263,0.0,1.0,79,0.00,,,0.00,,2013-10-24 08:11:00,
2013-10-24 01:21:00,62.0,55.0,29.96,West,263,3.0,3.0,79,0.00,,,0.00,,2013-10-24 08:21:00,
2013-10-24 01:42:00,62.0,55.0,29.96,West,263,0.0,3.0,79,0.00,,,0.00,,2013-10-24 08:42:00,
2013-10-24 01:53:00,62.0,55.0,29.97,West,263,0.0,2.0,79,0.00,,,0.00,,2013-10-24 08:53:00,
2013-10-24 02:21:00,62.0,55.0,29.97,West,263,0.0,2.0,79,0.00,,,0.00,,2013-10-24 09:21:00,
2013-10-24 02:53:00,62.0,55.0,29.96,West,263,0.0,1.0,79,0.00,,,0.00,,2013-10-24 09:53:00,
2013-10-24 03:23:00,62.0,55.0,29.96,West,263,1.0,3.0,79,0.00,,,0.00,,2013-10-24 10:23:00,
2013-10-24 03:52:00,62.0,55.0,29.95,West,263,1.0,2.0,79,0.00,,,0.00,,2013-10-24 10:52:00,
2013-10-24 04:22:00,62.0,55.0,29.95,West,263,0.0,2.0,79,0.00,,,0.00,,2013-10-24 11:22:00,
2013-10-24 04:42:00,62.0,55.0,29.95,West,263,0.0,3.0,79,0.00,,,0.00,,2013-10-24 11:42:00,
2013-10-24 04:53:00,62.0,55.0,29.95,West,263,0.0,1.0,79,0.00,,,0.00,,2013-10-24 11:53:00,
2013-10-24 05:12:00,62.0,55.0,29.95,West,263,0.0,2.0,78,0.00,,,0.00,,2013-10-24 12:12:00,
2013-10-24 05:22:00,62.0,55.0,29.95,West,263,1.0,2.0,79,0.00,,,0.00,,2013-10-24 12:22:00,
2013-10-24 05:42:00,61.0,54.0,29.95,West,263,1.0,3.0,79,0.00,,,0.00,,2013-10-24 12:42:00,
2013-10-24 05:52:00,61.0,55.0,29.95,West,263,0.0,3.0,80,0.00,,,0.00,,2013-10-24 12:52:00,
2013-10-24 06:11:00,62.0,55.0,29.95,West,263,0.0,3.0,79,0.00,,,0.00,,2013-10-24 13:11:00,
2013-10-24 06:21:00,61.0,54.0,29.96,West,263,0.0,3.0,78,0.00,,,0.00,,2013-10-24 13:21:00,
2013-10-24 06:42:00,62.0,55.0,29.96,West,263,0.0,1.0,78,0.00,,,0.00,,2013-10-24 13:42:00,
2013-10-24 06:52:00,62.0,55.0,29.97,West,263,0.0,2.0,78,0.00,,,0.00,,2013-10-24 13:52:00,
2013-10-24 07:21:00,62.0,55.0,29.98,West,263,1.0,3.0,78,0.00,,,0.00,,2013-10-24 14:21:00,
2013-10-24 07:42:00,62.0,55.0,29.98,West,265,0.0,3.0,78,0.00,,,0.00,,2013-10-24 14:42:00,
2013-10-24 07:52:00,62.0,55.0,29.99,West,265,0.0,3.0,78,0.00,,,0.00,,2013-10-24 14:52:00,
2013-10-24 08:21:00,62.0,55.0,29.99,West,265,0.0,2.0,78,0.00,,,0.00,,2013-10-24 15:21:00,
2013-10-24 08:53:00,62.0,55.0,30.01,West,265,0.0,2.0,78,0.00,,,0.00,,2013-10-24 15:53:00,
2013-10-24 09:23:00,62.0,55.0,30.01,West,265,1.0,3.0,77,0.00,,,0.00,,2013-10-24 16:23:00,
2013-10-24 09:42:00,63.0,56.0,30.01,West,265,0.0,2.0,77,0.00,,,0.00,,2013-10-24 16:42:00,
2013-10-24 09:53:00,63.0,55.0,30.01,West,265,0.0,2.0,76,0.00,,,0.00,,2013-10-24 16:53:00,
2013-10-24 10:22:00,63.0,55.0,30.02,West,265,2.0,3.0,74,0.00,,,0.00,,2013-10-24 17:22:00,
2013-10-24 10:43:00,63.0,55.0,30.02,West,265,0.0,2.0,74,0.00,,,0.00,,2013-10-24 17:43:00,
2013-10-24 10:52:00,64.0,55.0,30.02,West,265,1.0,3.0,73,0.00,,,0.00,,2013-10-24 17:52:00,
2013-10-24 11:22:00,64.0,55.0,30.02,West,265,1.0,3.0,72,0.00,,,0.00,,2013-10-24 18:22:00,
2013-10-24 11:42:00,64.0,55.0,30.02,West,267,1.0,6.0,72,0.00,,,0.00,,2013-10-24 18:42:00,
2013-10-24 11:53:00,64.0,54.0,30.02,West,267,3.0,5.0,71,0.00,,,0.00,,2013-10-24 18:53:00,
2013-10-24 12:11:00,65.0,55.0,30.02,West,267,3.0,6.0,71,0.00,,,0.00,,2013-10-24 19:11:00,
2013-10-24 12:22:00,65.0,55.0,30.01,West,272,2.0,5.0,69,0.00,,,0.00,,2013-10-24 19:22:00,
2013-10-24 12:43:00,65.0,55.0,30.00,West,271,1.0,5.0,70,0.00,,,0.00,,2013-10-24 19:43:00,
2013-10-24 12:53:00,65.0,55.0,30.00,WSW,249,1.0,3.0,69,0.00,,,0.00,,2013-10-24 19:53:00,
2013-10-24 13:22:00,67.0,56.0,29.98,SW,234,1.0,3.0,67,0.00,,,0.00,,2013-10-24 20:22:00,
2013-10-24 13:53:00,68.0,55.0,29.97,SW,223,4.0,7.0,64,0.00,,,0.00,,2013-10-24 20:53:00,
2013-10-24 14:21:00,68.0,56.0,29.96,WSW,249,3.0,8.0,65,0.00,,,0.00,,2013-10-24 21:21:00,
2013-10-24 14:43:00,68.0,56.0,29.96,WSW,240,1.0,3.0,65,0.00,,,0.00,,2013-10-24 21:43:00,
2013-10-24 14:54:00,68.0,55.0,29.95,SSW,192,2.0,5.0,64,0.00,,,0.00,,2013-10-24 21:54:00,
2013-10-24 15:13:00,69.0,56.0,29.95,South,188,1.0,3.0,64,0.00,,,0.00,,2013-10-24 22:13:00,
2013-10-24 15:24:00,70.0,56.0,29.95,SSW,197,1.0,7.0,62,0.00,,,0.00,,2013-10-24 22:24:00,
2013-10-24 15:43:00,71.0,56.0,29.95,South,191,3.0,5.0,60,0.00,,,0.00,,2013-10-24 22:43:00,
2013-10-24 15:54:00,71.0,56.0,29.96,SSW,203,3.0,7.0,60,0.00,,,0.00,,2013-10-24 22:54:00,
2013-10-24 16:12:00,70.0,56.0,29.95,SSW,198,1.0,9.0,62,0.00,,,0.00,,2013-10-24 23:12:00,
2013-10-24 16:22:00,70.0,56.0,29.95,SW,221,4.0,7.0,62,0.00,,,0.00,,2013-10-24 23:22:00,
2013-10-24 16:53:00,68.0,57.0,29.95,WNW,287,7.0,12.0,67,0.00,,,0.00,,2013-10-24 23:53:00,
2013-10-24 17:12:00,67.0,56.0,29.96,WNW,300,7.0,12.0,68,0.00,,,0.00,,2013-10-25 00:12:00,
2013-10-24 17:21:00,67.0,56.0,29.95,West,264,5.0,9.0,69,0.00,,,0.00,,2013-10-25 00:21:00,
2013-10-24 17:52:00,66.0,56.0,29.96,West,265,5.0,12.0,71,0.00,,,0.00,,2013-10-25 00:52:00,
2013-10-24 18:11:00,65.0,56.0,29.97,WSW,254,5.0,10.0,72,0.00,,,0.00,,2013-10-25 01:11:00,
2013-10-24 18:21:00,65.0,56.0,29.98,WSW,253,5.0,10.0,74,0.00,,,0.00,,2013-10-25 01:21:00,
2013-10-24 18:53:00,64.0,56.0,29.99,West,271,5.0,8.0,76,0.00,,,0.00,,2013-10-25 01:53:00,
2013-10-24 19:12:00,64.0,57.0,29.99,West,266,3.0,7.0,77,0.00,,,0.00,,2013-10-25 02:12:00,
2013-10-24 19:22:00,63.0,56.0,30.00,WNW,290,5.0,10.0,79,0.00,,,0.00,,2013-10-25 02:22:00,
2013-10-24 19:42:00,63.0,57.0,30.00,West,280,3.0,6.0,80,0.00,,,0.00,,2013-10-25 02:42:00,
2013-10-24 19:52:00,63.0,57.0,30.00,WNW,285,3.0,6.0,80,0.00,,,0.00,,2013-10-25 02:52:00,
2013-10-24 20:12:00,63.0,57.0,30.00,WNW,285,2.0,5.0,81,0.00,,,0.00,,2013-10-25 03:12:00,
2013-10-24 20:23:00,62.0,56.0,30.00,WNW,285,2.0,3.0,81,0.00,,,0.00,,2013-10-25 03:23:00,
2013-10-24 20:54:00,62.0,56.0,30.01,WNW,285,3.0,5.0,82,0.00,,,0.00,,2013-10-25 03:54:00,
2013-10-24 21:14:00,62.0,56.0,30.01,WNW,284,1.0,5.0,82,0.00,,,0.00,,2013-10-25 04:14:00,
2013-10-24 21:24:00,62.0,56.0,30.03,WNW,284,2.0,3.0,82,0.00,,,0.00,,2013-10-25 04:24:00,
2013-10-24 21:34:00,62.0,56.0,30.03,WNW,284,2.0,3.0,82,0.00,,,0.00,,2013-10-25 04:34:00,
2013-10-24 21:54:00,62.0,56.0,30.03,WNW,284,2.0,3.0,82,0.00,,,0.00,,2013-10-25 04:54:00,
2013-10-24 22:03:00,62.0,56.0,30.03,WNW,284,2.0,3.0,82,0.00,,,0.00,,2013-10-25 05:03:00,